World > North America > United States > Texas > Baird  

Baird, TX Hourly Weather Updates

Feedback E-mail the Weather

Quick Clicks

Baird, TX Weather Maps

°F °C°F °C
Baird Weather Map
UTC Time: 4/19/2024, 15:11
Your Time:

Baird, TX Regional Weather

Expires:202404191600;;019494
ASUS44 KFWD 191510
RWRTX 
NORTH TEXAS HOURLY WEATHER ROUNDUP
NATIONAL WEATHER SERVICE FORT WORTH TX
1000 AM CDT FRI APR 19 2024

NOTE: "FAIR" INDICATES FEW OR NO CLOUDS BELOW 12,000 FEET WITH NO
SIGNIFICANT WEATHER AND/OR OBSTRUCTIONS TO VISIBILITY.


TXZ083>090-098>101-113>116-127>130-139>142-154-155-191600-
WESTERN NORTH TEXAS
  
CITY           SKY/WX    TMP DP  RH WIND       PRES   REMARKS
WICHITA FALLS  PTSUNNY   53  42  66 NE18      30.20R                  
WF-KICKAPOO    PTSUNNY   53  42  66 N7        30.21R                  
VERNON         CLOUDY    53  42  64 N12G18    30.23S                  
ABILENE        CLOUDY    54  45  71 N14       30.20R                  
ABILENE-DYESS  CLOUDY    54  44  68 N15       30.17R                  
GRAHAM         CLOUDY    55  47  74 N12       30.16R                  
BRECKENRIDGE   CLOUDY    56  47  70 MISG      30.18R HAZE             
CISCO          CLOUDY    55  48  76 N10G16    30.14R                  
EASTLAND       CLOUDY    54  47  76 N10       30.17R                  
RANGER         CLOUDY    56  27  33 N9        30.17R                  
MINERAL WELLS  CLOUDY    59  49  69 N10       30.14R                  
STEPHENVILLE   CLOUDY    58  50  74 NE9       30.17R                  
COMANCHE       CLOUDY    58  50  74 N10       30.16R                  
BROWNWOOD      CLOUDY    59  48  67 N8        30.15R                  
COLEMAN        CLOUDY    57  47  69 N13       30.16R                  
BRADY          CLOUDY    57  48  72 NE12      30.13R                  
SAN SABA       CLOUDY    60  51  73 N8        30.14S                  
$$


SKY/WX - Weather  TMP - Temperature  DP - Dew Point  RH - Humidity
WIND - Wind Direction/Speed PRES - Barometric Pressure VSB - Visibility
WCI - Wind Chill Index E13G22 Wind - East Wind 13 mph/Gusts of 22 mph

Trending Headlines

Trending Entertainment Headlines

Baird Radar Loop

Use the map search tool if you want to place a location marker on the radar map...

Baird Quick Facts

National Two Day Weather Forecast


E-mail the Baird Weather Forecast

Voice your opinion or tell us about page issues...